,,,PA_Meas_PMT16A,,PR_Meas_QMR101_102,,RH_Meas_QMH101,,SR_Meas_QMS101,,TA_Meas_QMH101,,GenWind,,GenWind,
date,time,status,PA,status,PR,status,RH,status,SR,status,TA,status,DirAvg,status,SpdAvg,
2009-01-28, 00:00:04,VALID,999.256,VALID,0,VALID,93.2645,VALID,0,VALID,23.6835,VALID,166,VALID,0.709766,
2009-01-28, 00:01:04,VALID,999.247,VALID,0,VALID,93.4628,VALID,0,VALID,23.6835,VALID,153,VALID,0.412109,
2009-01-28, 00:02:04,VALID,999.226,VALID,0,VALID,93.646,VALID,0,VALID,23.6835,VALID,153,VALID,0.217578,
2009-01-28, 00:03:04,VALID,999.175,VALID,0,VALID,93.6688,VALID,0,VALID,23.664,VALID,153,VALID,0.0101562,
2009-01-28, 00:04:04,VALID,999.158,VALID,0,VALID,93.6765,VALID,0,VALID,23.6445,VALID,153,VALID,0.0863281,
2009-01-28, 00:05:04,VALID,999.151,VALID,0,VALID,93.6994,VALID,0,VALID,23.625,VALID,153,VALID,0.115625,
2009-01-28, 00:06:04,VALID,999.107,VALID,0,VALID,93.7146,VALID,0,VALID,23.625,VALID,153,VALID,0.226953,
2009-01-28, 00:07:04,VALID,999.082,VALID,0,VALID,93.7985,VALID,0,VALID,23.625,VALID,153,VALID,0.185937,
2009-01-28, 00:08:04,VALID,999.101,VALID,0,VALID,93.7833,VALID,0,VALID,23.6054,VALID,153,VALID,0.0988281,
2009-01-28, 00:09:04,VALID,999.045,VALID,0,VALID,93.7604,VALID,0,VALID,23.6054,VALID,153,VALID,0,
2009-01-28, 00:10:04,VALID,999.049,VALID,0,VALID,93.9893,VALID,0,VALID,23.5859,VALID,153,VALID,0,
2009-01-28, 00:11:04,VALID,999.074,VALID,0,VALID,94.1419,VALID,0,VALID,23.5646,VALID,153,VALID,0.202344,
2009-01-28, 00:12:04,VALID,999.048,VALID,0,VALID,94.119,VALID,0,VALID,23.5664,VALID,153,VALID,0.261328,
2009-01-28, 00:13:04,VALID,999.009,VALID,0,VALID,94.0732,VALID,0,VALID,23.5469,VALID,153,VALID,0.230078,
2009-01-28, 00:14:04,VALID,998.996,VALID,0,VALID,94.0503,VALID,0,VALID,23.5469,VALID,153,VALID,0.270703,
2009-01-28, 00:15:04,VALID,998.947,VALID,0,VALID,94.0198,VALID,0,VALID,23.5469,VALID,153,VALID,0.185937,
2009-01-28, 00:16:04,VALID,998.96,VALID,0,VALID,93.9359,VALID,0,VALID,23.5469,VALID,153,VALID,0.0800781,
2009-01-28, 00:17:04,VALID,998.926,VALID,0,VALID,93.9893,VALID,0,VALID,23.5469,VALID,153,VALID,0.0488281,
2009-01-28, 00:18:04,VALID,998.896,VALID,0,VALID,94.0961,VALID,0,VALID,23.5469,VALID,153,VALID,0.125781,
2009-01-28, 00:19:04,VALID,998.85,VALID,0,VALID,94.1114,VALID,0,VALID,23.5256,VALID,153,VALID,0,
2009-01-28, 00:20:04,VALID,998.83,VALID,0,VALID,94.0732,VALID,0,VALID,23.5469,VALID,153,VALID,0,
2009-01-28, 00:21:04,VALID,998.779,VALID,0,VALID,94.1266,VALID,0,VALID,23.5274,VALID,153,VALID,0,
2009-01-28, 00:22:04,VALID,998.762,VALID,0,VALID,94.2334,VALID,0,VALID,23.5274,VALID,153,VALID,0,
2009-01-28, 00:23:04,VALID,998.77,VALID,0,VALID,94.2868,VALID,0,VALID,23.5079,VALID,153,VALID,0,
2009-01-28, 00:24:04,VALID,998.713,VALID,0,VALID,94.2868,VALID,0,VALID,23.4688,VALID,153,VALID,0,
2009-01-28, 00:25:04,VALID,998.755,VALID,0,VALID,94.3097,VALID,0,VALID,23.4493,VALID,153,VALID,0,
2009-01-28, 00:26:04,VALID,998.743,VALID,0,VALID,94.3555,VALID,0,VALID,23.4493,VALID,153,VALID,0.137891,
2009-01-28, 00:27:04,VALID,998.74,VALID,0,VALID,94.4242,VALID,0,VALID,23.4493,VALID,153,VALID,0.260938,
2009-01-28, 00:28:04,VALID,998.72,VALID,0,VALID,94.4394,VALID,0,VALID,23.4298,VALID,125,VALID,0.395312,
2009-01-28, 00:29:04,VALID,998.72,VALID,0,VALID,94.4928,VALID,0,VALID,23.4103,VALID,46,VALID,0.694531,
2009-01-28, 00:30:04,VALID,998.679,VALID,0,VALID,94.5081,VALID,0,VALID,23.4103,VALID,44,VALID,0.851953,
2009-01-28, 00:31:04,VALID,998.666,VALID,0,VALID,94.4623,VALID,0,VALID,23.4103,VALID,40,VALID,0.847266,
2009-01-28, 00:32:04,VALID,998.661,VALID,0,VALID,94.4547,VALID,0,VALID,23.389,VALID,38,VALID,0.850781,
2009-01-28, 00:33:04,VALID,998.632,VALID,0,VALID,94.4547,VALID,0,VALID,23.3908,VALID,37,VALID,0.845312,
2009-01-28, 00:34:04,VALID,998.603,VALID,0,VALID,94.4471,VALID,0,VALID,23.3908,VALID,37,VALID,0.734766,
2009-01-28, 00:35:04,VALID,998.585,VALID,0,VALID,94.4547,VALID,0,VALID,23.3713,VALID,37,VALID,0.546484,
2009-01-28, 00:36:04,VALID,998.565,VALID,0,VALID,94.5005,VALID,0,VALID,23.3518,VALID,37,VALID,0.382422,
2009-01-28, 00:37:04,VALID,998.552,VALID,0,VALID,94.6531,VALID,0,VALID,23.3518,VALID,37,VALID,0.291016,
2009-01-28, 00:38:04,VALID,998.521,VALID,0,VALID,94.7294,VALID,0,VALID,23.3518,VALID,37,VALID,0.310547,
2009-01-28, 00:39:04,VALID,998.514,VALID,0,VALID,94.7904,VALID,0,VALID,23.3518,VALID,37,VALID,0.333203,
2009-01-28, 00:40:04,VALID,998.53,VALID,0,VALID,94.8591,VALID,0,VALID,23.3518,VALID,37,VALID,0.335938,
2009-01-28, 00:41:04,VALID,998.491,VALID,0,VALID,94.8972,VALID,0,VALID,23.3518,VALID,37,VALID,0.208984,
2009-01-28, 00:42:04,VALID,998.474,VALID,0,VALID,94.8438,VALID,0,VALID,23.311,VALID,37,VALID,0,
2009-01-28, 00:43:04,VALID,998.492,VALID,0,VALID,94.8591,VALID,0,VALID,23.3127,VALID,37,VALID,0,
2009-01-28, 00:44:04,VALID,998.477,VALID,0,VALID,94.882,VALID,0,VALID,23.2932,VALID,37,VALID,0,
2009-01-28, 00:45:04,VALID,998.491,VALID,0,VALID,94.9583,VALID,0,VALID,23.3145,VALID,37,VALID,0,
2009-01-28, 00:46:04,VALID,998.476,VALID,0,VALID,95.0345,VALID,0,VALID,23.2932,VALID,37,VALID,0,
2009-01-28, 00:47:04,VALID,998.496,VALID,0,VALID,95.0422,VALID,0,VALID,23.2932,VALID,37,VALID,0,
2009-01-28, 00:48:04,VALID,998.484,VALID,0,VALID,95.0651,VALID,0,VALID,23.2932,VALID,37,VALID,0,
2009-01-28, 00:49:04,VALID,998.491,VALID,0,VALID,95.0651,VALID,0,VALID,23.2737,VALID,37,VALID,0,
2009-01-28, 00:50:04,VALID,998.474,VALID,0,VALID,95.0498,VALID,0,VALID,23.2542,VALID,37,VALID,0,
2009-01-28, 00:51:04,VALID,998.495,VALID,0,VALID,95.1337,VALID,0,VALID,23.2542,VALID,37,VALID,0,
2009-01-28, 00:52:04,VALID,998.493,VALID,0,VALID,95.21,VALID,0,VALID,23.2737,VALID,37,VALID,0,
2009-01-28, 00:53:04,VALID,998.442,VALID,0,VALID,95.2253,VALID,0,VALID,23.2737,VALID,37,VALID,0,
2009-01-28, 00:54:04,VALID,998.471,VALID,0,VALID,95.2558,VALID,0,VALID,23.2542,VALID,37,VALID,0,
2009-01-28, 00:55:04,VALID,998.483,VALID,0,VALID,95.3016,VALID,0,VALID,23.2737,VALID,37,VALID,0,
2009-01-28, 00:56:04,VALID,998.454,VALID,0,VALID,95.3168,VALID,0,VALID,23.2737,VALID,37,VALID,0,
2009-01-28, 00:57:04,VALID,998.456,VALID,0,VALID,95.3016,VALID,0,VALID,23.2737,VALID,37,VALID,0,
2009-01-28, 00:58:04,VALID,998.411,VALID,0,VALID,95.3321,VALID,0,VALID,23.2524,VALID,37,VALID,0,
2009-01-28, 00:59:04,VALID,998.426,VALID,0,VALID,95.3245,VALID,0,VALID,23.2542,VALID,37,VALID,0,
2009-01-28, 01:00:04,VALID,998.381,VALID,0,VALID,95.3168,VALID,0,VALID,23.2542,VALID,37,VALID,0,
2009-01-28, 01:01:04,VALID,998.361,VALID,0,VALID,95.3321,VALID,0,VALID,23.2542,VALID,37,VALID,0.164844,
2009-01-28, 01:02:04,VALID,998.377,VALID,0,VALID,95.3474,VALID,0,VALID,23.2542,VALID,37,VALID,0.14375,
2009-01-28, 01:03:04,VALID,998.354,VALID,0,VALID,95.3855,VALID,0,VALID,23.2347,VALID,37,VALID,0.0898438,
2009-01-28, 01:04:04,VALID,998.37,VALID,0,VALID,95.3855,VALID,0,VALID,23.2347,VALID,37,VALID,0,
2009-01-28, 01:05:04,VALID,998.369,VALID,0,VALID,95.3779,VALID,0,VALID,23.2347,VALID,37,VALID,0,
2009-01-28, 01:06:04,VALID,998.369,VALID,0,VALID,95.3855,VALID,0,VALID,23.2134,VALID,37,VALID,0,
2009-01-28, 01:07:04,VALID,998.366,VALID,0,VALID,95.3626,VALID,0,VALID,23.1939,VALID,37,VALID,0,
2009-01-28, 01:08:04,VALID,998.364,VALID,0,VALID,95.3855,VALID,0.112286,VALID,23.2152,VALID,37,VALID,0,
2009-01-28, 01:09:04,VALID,998.38,VALID,0,VALID,95.355,VALID,0,VALID,23.1762,VALID,37,VALID,0,
2009-01-28, 01:10:04,VALID,998.356,VALID,0,VALID,95.3321,VALID,0,VALID,23.1371,VALID,37,VALID,0,
2009-01-28, 01:11:04,VALID,998.338,VALID,0,VALID,95.294,VALID,0,VALID,23.1176,VALID,37,VALID,0,
2009-01-28, 01:12:04,VALID,998.346,VALID,0,VALID,95.3397,VALID,0,VALID,23.0964,VALID,37,VALID,0,
2009-01-28, 01:13:04,VALID,998.358,VALID,0,VALID,95.4389,VALID,0.112286,VALID,23.1159,VALID,37,VALID,0,
2009-01-28, 01:14:04,VALID,998.363,VALID,0,VALID,95.5152,VALID,0,VALID,23.1566,VALID,37,VALID,0.0914062,
2009-01-28, 01:15:04,VALID,998.319,VALID,0,VALID,95.5839,VALID,0,VALID,23.1566,VALID,37,VALID,0,
2009-01-28, 01:16:04,VALID,998.378,VALID,0,VALID,95.622,VALID,0,VALID,23.1957,VALID,37,VALID,0,
2009-01-28, 01:17:04,VALID,998.339,VALID,0,VALID,95.6144,VALID,0,VALID,23.1762,VALID,37,VALID,0,
2009-01-28, 01:18:04,VALID,998.36,VALID,0,VALID,95.6144,VALID,0,VALID,23.1957,VALID,37,VALID,0,
2009-01-28, 01:19:04,VALID,998.361,VALID,0,VALID,95.6297,VALID,0,VALID,23.1957,VALID,37,VALID,0.276172,
2009-01-28, 01:20:04,VALID,998.381,VALID,0,VALID,95.5915,VALID,0,VALID,23.1549,VALID,49,VALID,0.423438,
2009-01-28, 01:21:04,VALID,998.407,VALID,0,VALID,95.561,VALID,0,VALID,23.1566,VALID,117,VALID,0.700781,
2009-01-28, 01:22:04,VALID,998.411,VALID,0,VALID,95.6144,VALID,0,VALID,23.1762,VALID,117,VALID,0.859766,
2009-01-28, 01:23:04,VALID,998.453,VALID,0,VALID,95.6068,VALID,0.112286,VALID,23.1566,VALID,117,VALID,0.870313,
2009-01-28, 01:24:04,VALID,998.459,VALID,0,VALID,95.5915,VALID,0,VALID,23.1566,VALID,123,VALID,0.833203,
2009-01-28, 01:25:04,VALID,998.475,VALID,0,VALID,95.5839,VALID,0,VALID,23.1549,VALID,125,VALID,0.759766,
2009-01-28, 01:26:04,VALID,998.507,VALID,0,VALID,95.5839,VALID,0,VALID,23.1549,VALID,128,VALID,0.810156,
2009-01-28, 01:27:04,VALID,998.524,VALID,0,VALID,95.5915,VALID,0.112286,VALID,23.1762,VALID,132,VALID,0.682422,
2009-01-28, 01:28:04,VALID,998.513,VALID,0,VALID,95.5381,VALID,0,VALID,23.1762,VALID,132,VALID,0.452344,
2009-01-28, 01:29:04,VALID,998.476,VALID,0,VALID,95.5534,VALID,0,VALID,23.1549,VALID,133,VALID,0.430078,
2009-01-28, 01:30:04,VALID,998.51,VALID,0,VALID,95.5839,VALID,0,VALID,23.1762,VALID,133,VALID,0.440234,
2009-01-28, 01:31:04,VALID,998.472,VALID,0,VALID,95.5534,VALID,0,VALID,23.1762,VALID,137,VALID,0.021875,
2009-01-28, 01:32:04,VALID,998.506,VALID,0,VALID,95.5228,VALID,0,VALID,23.1762,VALID,137,VALID,0,
2009-01-28, 01:33:04,VALID,998.447,VALID,0,VALID,95.5381,VALID,0,VALID,23.1566,VALID,137,VALID,0,
2009-01-28, 01:34:04,VALID,998.448,VALID,0,VALID,95.5076,VALID,0,VALID,23.1371,VALID,137,VALID,0,
2009-01-28, 01:35:04,VALID,998.396,VALID,0,VALID,95.4847,VALID,0,VALID,23.1176,VALID,137,VALID,0,
2009-01-28, 01:36:04,VALID,998.428,VALID,0,VALID,95.5,VALID,0,VALID,23.1176,VALID,137,VALID,0,
2009-01-28, 01:37:04,VALID,998.399,VALID,0,VALID,95.5305,VALID,0,VALID,23.0981,VALID,137,VALID,0,
2009-01-28, 01:38:04,VALID,998.377,VALID,0,VALID,95.5152,VALID,0,VALID,23.1176,VALID,137,VALID,0.145703,
2009-01-28, 01:39:04,VALID,998.381,VALID,0,VALID,95.4847,VALID,0,VALID,23.0786,VALID,137,VALID,0.29375,
2009-01-28, 01:40:04,VALID,998.345,VALID,0,VALID,95.4389,VALID,0,VALID,23.0804,VALID,134,VALID,0.444922,
2009-01-28, 01:41:04,VALID,998.323,VALID,0,VALID,95.4618,VALID,0,VALID,23.0786,VALID,132,VALID,0.473828,
2009-01-28, 01:42:04,VALID,998.308,VALID,0,VALID,95.4008,VALID,0,VALID,23.0591,VALID,131,VALID,0.194141,
2009-01-28, 01:43:04,VALID,998.343,VALID,0,VALID,95.416,VALID,0,VALID,23.0786,VALID,127,VALID,0.239453,
2009-01-28, 01:44:04,VALID,998.335,VALID,0,VALID,95.4084,VALID,0,VALID,23.0591,VALID,127,VALID,0.286719,
2009-01-28, 01:45:04,VALID,998.331,VALID,0,VALID,95.3779,VALID,0,VALID,23.0591,VALID,127,VALID,0.196484,
2009-01-28, 01:46:04,VALID,998.358,VALID,0,VALID,95.355,VALID,0,VALID,23.0396,VALID,127,VALID,0.194922,
2009-01-28, 01:47:04,VALID,998.395,VALID,0,VALID,95.3626,VALID,0,VALID,23.0396,VALID,127,VALID,0.239453,
2009-01-28, 01:48:04,VALID,998.42,VALID,0,VALID,95.3703,VALID,0,VALID,23.0183,VALID,127,VALID,0.0847656,
2009-01-28, 01:49:04,VALID,998.432,VALID,0,VALID,95.4008,VALID,0,VALID,23.0396,VALID,128,VALID,0.134375,
2009-01-28, 01:50:04,VALID,998.457,VALID,0,VALID,95.4237,VALID,0,VALID,23.0396,VALID,128,VALID,0.128125,
2009-01-28, 01:51:04,VALID,998.442,VALID,0,VALID,95.4389,VALID,0.112286,VALID,23.0396,VALID,128,VALID,0.241797,
2009-01-28, 01:52:04,VALID,998.458,VALID,0,VALID,95.4237,VALID,0,VALID,23.0591,VALID,128,VALID,0.453906,
2009-01-28, 01:53:04,VALID,998.459,VALID,0,VALID,95.3779,VALID,0,VALID,23.0591,VALID,128,VALID,0.425,
2009-01-28, 01:54:04,VALID,998.483,VALID,0,VALID,95.3397,VALID,0,VALID,23.0804,VALID,128,VALID,0.284766,
2009-01-28, 01:55:04,VALID,998.459,VALID,0,VALID,95.3245,VALID,0,VALID,23.0786,VALID,128,VALID,0.297266,
2009-01-28, 01:56:04,VALID,998.471,VALID,0,VALID,95.3016,VALID,0,VALID,23.0591,VALID,128,VALID,0.245312,
2009-01-28, 01:57:04,VALID,998.46,VALID,0,VALID,95.2558,VALID,0,VALID,23.0786,VALID,105,VALID,0.308984,
2009-01-28, 01:58:04,VALID,998.426,VALID,0,VALID,95.2405,VALID,0,VALID,23.0378,VALID,105,VALID,0.403516,
2009-01-28, 01:59:04,VALID,998.396,VALID,0,VALID,95.2711,VALID,0,VALID,23.0591,VALID,105,VALID,0.327734,
2009-01-28, 02:00:04,VALID,998.408,VALID,0,VALID,95.2787,VALID,0,VALID,23.0573,VALID,105,VALID,0.335156,
2009-01-28, 02:01:04,VALID,998.413,VALID,0,VALID,95.2482,VALID,0,VALID,23.0591,VALID,97,VALID,0.469531,
2009-01-28, 02:02:04,VALID,998.399,VALID,0,VALID,95.2405,VALID,0,VALID,23.0786,VALID,65,VALID,0.377344,
2009-01-28, 02:03:04,VALID,998.349,VALID,0,VALID,95.1566,VALID,0,VALID,23.0786,VALID,65,VALID,0.133594,
2009-01-28, 02:04:04,VALID,998.361,VALID,0,VALID,95.1643,VALID,0,VALID,23.0786,VALID,65,VALID,0.351172,
2009-01-28, 02:05:04,VALID,998.341,VALID,0,VALID,95.1032,VALID,0,VALID,23.0786,VALID,61,VALID,0.423438,
2009-01-28, 02:06:04,VALID,998.313,VALID,0,VALID,95.0422,VALID,0,VALID,23.0573,VALID,55,VALID,0.440625,
2009-01-28, 02:07:04,VALID,998.275,VALID,0,VALID,94.9811,VALID,0,VALID,23.0981,VALID,37,VALID,0.529688,
2009-01-28, 02:08:04,VALID,998.247,VALID,0,VALID,94.8667,VALID,0,VALID,23.0981,VALID,34,VALID,0.533203,
2009-01-28, 02:09:04,VALID,998.205,VALID,0,VALID,94.7675,VALID,0,VALID,23.0981,VALID,34,VALID,0.454297,
2009-01-28, 02:10:04,VALID,998.187,VALID,0,VALID,94.6531,VALID,0,VALID,23.0981,VALID,34,VALID,0.201172,
2009-01-28, 02:11:04,VALID,998.183,VALID,0,VALID,94.4928,VALID,0,VALID,23.1176,VALID,34,VALID,0.416016,
2009-01-28, 02:12:04,VALID,998.18,VALID,0,VALID,94.4547,VALID,0.112286,VALID,23.1354,VALID,34,VALID,0.427734,
2009-01-28, 02:13:04,VALID,998.191,VALID,0,VALID,94.47,VALID,0,VALID,23.1566,VALID,34,VALID,0.44375,
2009-01-28, 02:14:04,VALID,998.177,VALID,0,VALID,94.5997,VALID,0,VALID,23.1762,VALID,33,VALID,0.426562,
2009-01-28, 02:15:04,VALID,998.178,VALID,0,VALID,94.6149,VALID,0.112286,VALID,23.1566,VALID,33,VALID,0.389844,
2009-01-28, 02:16:04,VALID,998.141,VALID,0,VALID,94.6988,VALID,0,VALID,23.1371,VALID,33,VALID,0.303516,
2009-01-28, 02:17:04,VALID,998.15,VALID,0,VALID,94.7446,VALID,0,VALID,23.1176,VALID,33,VALID,0.206641,
2009-01-28, 02:18:04,VALID,998.183,VALID,0,VALID,94.7904,VALID,0,VALID,23.0981,VALID,33,VALID,0.0371094,
2009-01-28, 02:19:04,VALID,998.199,VALID,0,VALID,94.7828,VALID,0,VALID,23.0769,VALID,33,VALID,0,
2009-01-28, 02:20:04,VALID,998.209,VALID,0,VALID,94.8057,VALID,0,VALID,23.0786,VALID,33,VALID,0,
2009-01-28, 02:21:04,VALID,998.223,VALID,0,VALID,94.882,VALID,0,VALID,23.0786,VALID,33,VALID,0.276563,
2009-01-28, 02:22:04,VALID,998.22,VALID,0,VALID,94.9506,VALID,0.112286,VALID,23.0573,VALID,43,VALID,0.505859,
2009-01-28, 02:23:04,VALID,998.22,VALID,0,VALID,94.9659,VALID,0,VALID,23.0573,VALID,112,VALID,0.532031,
2009-01-28, 02:24:04,VALID,998.21,VALID,0,VALID,94.9277,VALID,0,VALID,23.0786,VALID,112,VALID,0.442578,
2009-01-28, 02:25:04,VALID,998.207,VALID,0,VALID,94.8438,VALID,0,VALID,23.0981,VALID,115,VALID,0.529688,
2009-01-28, 02:26:04,VALID,998.186,VALID,0,VALID,94.6912,VALID,0,VALID,23.0981,VALID,135,VALID,0.684375,
2009-01-28, 02:27:04,VALID,998.21,VALID,0,VALID,94.6454,VALID,0,VALID,23.0981,VALID,136,VALID,0.435547,
2009-01-28, 02:28:04,VALID,998.183,VALID,0,VALID,94.6073,VALID,0,VALID,23.0769,VALID,134,VALID,0.371875,
2009-01-28, 02:29:04,VALID,998.195,VALID,0,VALID,94.5539,VALID,0,VALID,23.0981,VALID,129,VALID,0.603906,
2009-01-28, 02:30:04,VALID,998.213,VALID,0,VALID,94.5462,VALID,0,VALID,23.0786,VALID,112,VALID,0.739844,
2009-01-28, 02:31:04,VALID,998.199,VALID,0,VALID,94.5462,VALID,0,VALID,23.0591,VALID,112,VALID,0.639453,
2009-01-28, 02:32:04,VALID,998.206,VALID,0,VALID,94.5081,VALID,0,VALID,23.0591,VALID,111,VALID,0.650781,
2009-01-28, 02:33:04,VALID,998.219,VALID,0,VALID,94.5386,VALID,0,VALID,23.0396,VALID,105,VALID,0.483984,
2009-01-28, 02:34:04,VALID,998.215,VALID,0,VALID,94.5157,VALID,0,VALID,23.0183,VALID,104,VALID,0.373047,
2009-01-28, 02:35:04,VALID,998.211,VALID,0,VALID,94.4928,VALID,0,VALID,23.0201,VALID,103,VALID,0.333984,
2009-01-28, 02:36:04,VALID,998.224,VALID,0,VALID,94.5386,VALID,0,VALID,23.0006,VALID,103,VALID,0.226953,
2009-01-28, 02:37:04,VALID,998.229,VALID,0,VALID,94.5844,VALID,0,VALID,22.9811,VALID,103,VALID,0.148438,
2009-01-28, 02:38:04,VALID,998.223,VALID,0,VALID,94.7599,VALID,0,VALID,23.0006,VALID,103,VALID,0.278516,
2009-01-28, 02:39:04,VALID,998.214,VALID,0,VALID,94.8514,VALID,0,VALID,22.9811,VALID,103,VALID,0.391797,
2009-01-28, 02:40:04,VALID,998.186,VALID,0,VALID,94.9735,VALID,0.112286,VALID,22.9811,VALID,103,VALID,0.375781,
2009-01-28, 02:41:04,VALID,998.206,VALID,0,VALID,95.0498,VALID,0,VALID,22.9811,VALID,45,VALID,0.44375,
2009-01-28, 02:42:04,VALID,998.178,VALID,0,VALID,95.0803,VALID,0.112286,VALID,22.9811,VALID,43,VALID,0.402734,
2009-01-28, 02:43:04,VALID,998.134,VALID,0,VALID,95.0727,VALID,0,VALID,22.9615,VALID,43,VALID,0.585547,
2009-01-28, 02:44:04,VALID,998.16,VALID,0,VALID,95.0117,VALID,0,VALID,22.9615,VALID,43,VALID,0.673047,
2009-01-28, 02:45:04,VALID,998.136,VALID,0,VALID,94.9888,VALID,0,VALID,22.9615,VALID,44,VALID,0.620703,
2009-01-28, 02:46:04,VALID,998.138,VALID,0,VALID,94.8896,VALID,0,VALID,22.942,VALID,47,VALID,0.683594,
2009-01-28, 02:47:04,VALID,998.148,VALID,0,VALID,94.9354,VALID,0,VALID,22.942,VALID,48,VALID,0.716406,
2009-01-28, 02:48:04,VALID,998.162,VALID,0,VALID,94.882,VALID,0,VALID,22.9225,VALID,49,VALID,0.394531,
2009-01-28, 02:49:04,VALID,998.184,VALID,0,VALID,94.8133,VALID,0.112286,VALID,22.8835,VALID,49,VALID,0.387891,
2009-01-28, 02:50:04,VALID,998.18,VALID,0,VALID,94.8133,VALID,0,VALID,22.864,VALID,49,VALID,0.558984,
2009-01-28, 02:51:04,VALID,998.147,VALID,0,VALID,95.004,VALID,0,VALID,22.8232,VALID,49,VALID,0.615234,
2009-01-28, 02:52:04,VALID,998.16,VALID,0,VALID,95.088,VALID,0,VALID,22.8427,VALID,49,VALID,0.635156,
2009-01-28, 02:53:04,VALID,998.178,VALID,0,VALID,95.0651,VALID,0,VALID,22.8232,VALID,49,VALID,0.565625,
2009-01-28, 02:54:04,VALID,998.173,VALID,0,VALID,95.0345,VALID,0,VALID,22.8037,VALID,52,VALID,0.425781,
2009-01-28, 02:55:04,VALID,998.176,VALID,0,VALID,95.004,VALID,0,VALID,22.825,VALID,52,VALID,0.428125,
2009-01-28, 02:56:04,VALID,998.232,VALID,0,VALID,94.9659,VALID,0,VALID,22.7842,VALID,52,VALID,0.249219,
2009-01-28, 02:57:04,VALID,998.218,VALID,0,VALID,94.9354,VALID,0,VALID,22.8055,VALID,52,VALID,0.2625,
2009-01-28, 02:58:04,VALID,998.187,VALID,0,VALID,95.0498,VALID,0,VALID,22.8055,VALID,52,VALID,0.285156,
2009-01-28, 02:59:04,VALID,998.184,VALID,0,VALID,95.1185,VALID,0,VALID,22.8055,VALID,52,VALID,0.390625,
2009-01-28, 03:00:04,VALID,998.215,VALID,0,VALID,95.2405,VALID,0,VALID,22.8055,VALID,45,VALID,0.587891,
2009-01-28, 03:01:04,VALID,998.192,VALID,0,VALID,95.3168,VALID,0,VALID,22.8055,VALID,28,VALID,0.745313,
2009-01-28, 03:02:04,VALID,998.178,VALID,0,VALID,95.4008,VALID,0,VALID,22.825,VALID,27,VALID,0.796875,
2009-01-28, 03:03:04,VALID,998.177,VALID,0,VALID,95.4389,VALID,0,VALID,22.825,VALID,26,VALID,0.780469,
2009-01-28, 03:04:04,VALID,998.138,VALID,0,VALID,95.4389,VALID,0,VALID,22.825,VALID,17,VALID,0.730078,
2009-01-28, 03:05:04,VALID,998.147,VALID,0,VALID,95.4465,VALID,0,VALID,22.8445,VALID,17,VALID,0.591406,
2009-01-28, 03:06:04,VALID,998.173,VALID,0,VALID,95.4389,VALID,0,VALID,22.8445,VALID,16,VALID,0.635156,
2009-01-28, 03:07:04,VALID,998.149,VALID,0,VALID,95.3855,VALID,0,VALID,22.825,VALID,15,VALID,0.558984,
2009-01-28, 03:08:04,VALID,998.134,VALID,0,VALID,95.416,VALID,0,VALID,22.825,VALID,15,VALID,0.508203,
2009-01-28, 03:09:04,VALID,998.099,VALID,0,VALID,95.4084,VALID,0,VALID,22.8445,VALID,15,VALID,0.482422,
2009-01-28, 03:10:04,VALID,998.146,VALID,0,VALID,95.416,VALID,0,VALID,22.825,VALID,15,VALID,0.527344,
2009-01-28, 03:11:04,VALID,998.162,VALID,0,VALID,95.355,VALID,0,VALID,22.8462,VALID,15,VALID,0.41875,
2009-01-28, 03:12:04,VALID,998.147,VALID,0,VALID,95.3397,VALID,0,VALID,22.8055,VALID,15,VALID,0.519922,
2009-01-28, 03:13:04,VALID,998.172,VALID,0,VALID,95.3626,VALID,0,VALID,22.786,VALID,15,VALID,0.496484,
2009-01-28, 03:14:04,VALID,998.202,VALID,0,VALID,95.3703,VALID,0,VALID,22.786,VALID,15,VALID,0.316016,
2009-01-28, 03:15:04,VALID,998.191,VALID,0,VALID,95.3779,VALID,0,VALID,22.786,VALID,15,VALID,0.147656,
2009-01-28, 03:16:04,VALID,998.227,VALID,0,VALID,95.3779,VALID,0,VALID,22.786,VALID,15,VALID,0.289844,
2009-01-28, 03:17:04,VALID,998.243,VALID,0,VALID,95.4465,VALID,0,VALID,22.786,VALID,15,VALID,0.237891,
2009-01-28, 03:18:04,VALID,998.246,VALID,0,VALID,95.5076,VALID,0,VALID,22.8055,VALID,15,VALID,0.241406,
2009-01-28, 03:19:04,VALID,998.275,VALID,0,VALID,95.5457,VALID,0,VALID,22.8055,VALID,15,VALID,0.0625,
2009-01-28, 03:20:04,VALID,998.33,VALID,0,VALID,95.5381,VALID,0,VALID,22.8055,VALID,15,VALID,0,
2009-01-28, 03:21:04,VALID,998.355,VALID,0,VALID,95.5686,VALID,0,VALID,22.825,VALID,15,VALID,0,
2009-01-28, 03:22:04,VALID,998.366,VALID,0,VALID,95.5457,VALID,0,VALID,22.825,VALID,15,VALID,0,
2009-01-28, 03:23:04,VALID,998.382,VALID,0,VALID,95.5381,VALID,0,VALID,22.8055,VALID,15,VALID,0,
2009-01-28, 03:24:04,VALID,998.379,VALID,0,VALID,95.5228,VALID,0,VALID,22.8055,VALID,15,VALID,0,
2009-01-28, 03:25:04,VALID,998.442,VALID,0,VALID,95.5,VALID,0.112286,VALID,22.8055,VALID,15,VALID,0,
2009-01-28, 03:26:04,VALID,998.459,VALID,0,VALID,95.5686,VALID,0.112286,VALID,22.7842,VALID,15,VALID,0,
2009-01-28, 03:27:04,VALID,998.481,VALID,0,VALID,95.5534,VALID,0,VALID,22.8055,VALID,15,VALID,0,
2009-01-28, 03:28:04,VALID,998.465,VALID,0,VALID,95.561,VALID,0,VALID,22.825,VALID,18,VALID,0.346875,
2009-01-28, 03:29:04,VALID,998.495,VALID,0,VALID,95.5686,VALID,0,VALID,22.825,VALID,19,VALID,0.375391,
2009-01-28, 03:30:04,VALID,998.511,VALID,0,VALID,95.5457,VALID,0,VALID,22.8445,VALID,98,VALID,0.568359,
2009-01-28, 03:31:04,VALID,998.474,VALID,0,VALID,95.5152,VALID,0,VALID,22.8835,VALID,99,VALID,0.634375,
2009-01-28, 03:32:04,VALID,998.48,VALID,0,VALID,95.4389,VALID,0,VALID,22.903,VALID,100,VALID,0.486328,
2009-01-28, 03:33:04,VALID,998.452,VALID,0,VALID,95.4008,VALID,0,VALID,22.903,VALID,100,VALID,0.230469,
2009-01-28, 03:34:04,VALID,998.459,VALID,0,VALID,95.3245,VALID,0,VALID,22.942,VALID,100,VALID,0.210547,
2009-01-28, 03:35:04,VALID,998.468,VALID,0,VALID,95.2558,VALID,0,VALID,22.942,VALID,100,VALID,0,
2009-01-28, 03:36:04,VALID,998.47,VALID,0,VALID,95.21,VALID,0,VALID,22.942,VALID,100,VALID,0,
2009-01-28, 03:37:04,VALID,998.501,VALID,0,VALID,95.149,VALID,0,VALID,22.942,VALID,100,VALID,0,
2009-01-28, 03:38:04,VALID,998.497,VALID,0,VALID,95.1185,VALID,0,VALID,22.9225,VALID,101,VALID,0,
2009-01-28, 03:39:04,VALID,998.472,VALID,0,VALID,95.1337,VALID,0,VALID,22.942,VALID,123,VALID,0,
2009-01-28, 03:40:04,VALID,998.478,VALID,0,VALID,95.0498,VALID,0,VALID,22.942,VALID,123,VALID,0,
2009-01-28, 03:41:04,VALID,998.492,VALID,0,VALID,94.9888,VALID,0,VALID,22.9225,VALID,123,VALID,0,
2009-01-28, 03:42:04,VALID,998.485,VALID,0,VALID,94.9048,VALID,0,VALID,22.903,VALID,123,VALID,0.0136719,
2009-01-28, 03:43:04,VALID,998.521,VALID,0,VALID,94.9354,VALID,0,VALID,22.903,VALID,123,VALID,0.0367187,
2009-01-28, 03:44:04,VALID,998.509,VALID,0,VALID,94.9506,VALID,0,VALID,22.903,VALID,123,VALID,0,
2009-01-28, 03:45:04,VALID,998.548,VALID,0,VALID,94.9811,VALID,0,VALID,22.903,VALID,123,VALID,0,
2009-01-28, 03:46:04,VALID,998.506,VALID,0,VALID,95.0574,VALID,0,VALID,22.903,VALID,123,VALID,0,
2009-01-28, 03:47:04,VALID,998.529,VALID,0,VALID,94.8667,VALID,0,VALID,22.8835,VALID,123,VALID,0,
2009-01-28, 03:48:04,VALID,998.552,VALID,0,VALID,94.8591,VALID,0,VALID,22.8445,VALID,123,VALID,0,
2009-01-28, 03:49:04,VALID,998.563,VALID,0,VALID,94.8591,VALID,0,VALID,22.8445,VALID,123,VALID,0,